Flag for U.S.A. Weather past 2 weeks in Springfield, Illinois, U.S.A.

Now
77 °F

Sunny.


Feels Like: 79 °F
Forecast: 70 / 91 °F
Wind: 10 mph from Southwest

Location: Capital Airport

Current Time: Jul 26, 2014 at 9:18:27 AM

Latest Report: Jul 26, 2014 at 8:52 AM


Visibility: 10 mi

Pressure: 29.83 "Hg

Humidity: 79%

Dew point: 70 °F

Location of SpringfieldLocation

Historic Weather in Springfield — Graph

°F

Springfield temperature yesterday

Maximum temperature yesterday: 77 °F (at 6:52 PM)
Minimum temperature yesterday: 58 °F (at 1:52 AM)
Average temperature yesterday: 66 °F

Past Weeks' High & Low Weather Summary

 TemperatureHumidityPressure
High89 °F (Jul 12, 1:52 PM)97% (Jul 14, 6:52 AM)30.19 "Hg (Jul 14, 6:52 AM)
Low52 °F (Jul 16, 5:52 AM)39% (Jul 24, 3:52 PM)29.84 "Hg (Jul 26, 7:52 AM)
Average72 °F71%30.03 "Hg
* Reported Jul 11 7:52 AM — Jul 26 7:52 AM, Springfield, Weather by CustomWeather, © 2014

Note: Actual official high and low records may vary slightly from our data, if they occured in-between our weather recording intervals... More about our weather records

Advertising

Springfield weather history for previous 24 hours

 ConditionsComfort  
Time TempWeatherWind HumidityBarometerVisibility
7:52 AM
Jul 26
73 °FSunny.10 mph81%29.84 "Hg10 mi
6:52 AM71 °FSunny.8 mph84%29.84 "Hg10 mi
5:52 AM70 °FPassing clouds.8 mph84%29.84 "Hg10 mi
4:52 AM70 °FPassing clouds.9 mph81%29.84 "Hg10 mi
3:52 AM70 °FPassing clouds.9 mph81%29.85 "Hg10 mi
2:52 AM71 °FOvercast.12 mph78%29.86 "Hg10 mi
1:52 AM71 °FOvercast.12 mph76%29.88 "Hg10 mi
12:52 AM71 °FOvercast.12 mph73%29.90 "Hg10 mi
11:52 PM
Jul 25
70 °FPassing clouds.9 mph76%29.90 "Hg10 mi
10:52 PM70 °FOvercast.13 mph76%29.91 "Hg10 mi
9:52 PM70 °FOvercast.14 mph79%29.91 "Hg10 mi
8:52 PM72 °FOvercast.8 mph71%29.91 "Hg10 mi
7:52 PM72 °FSunny.7 mph73%29.91 "Hg10 mi
6:52 PM77 °FSunny.No wind52%29.90 "Hg10 mi
5:52 PM76 °FSunny.12 mph58%29.86 "Hg10 mi
4:52 PM73 °FSunny.12 mph69%29.86 "Hg10 mi
3:52 PM70 °FLight rain. Partly sunny.9 mph79%29.90 "Hg10 mi
2:52 PM68 °FSunny.15 mph82%29.94 "Hg10 mi
1:52 PM64 °FLight rain. Fog.22 mph90%29.88 "Hg5 mi
12:59 PM64 °FHeavy rain. Fog.No wind94%30.11 "Hg2 mi
11:52 AM65 °FRain. Fog.6 mph87%30.02 "Hg4 mi
10:52 AM64 °FRain. Scattered clouds.9 mph90%30.02 "Hg7 mi
9:52 AM65 °FScattered clouds.3 mph85%30.09 "Hg10 mi
Weather by CustomWeather, © 2014

See weather overviewHow to use our weather pages